ACS3

Last updated on Mon Sep 21 2026 00:02:09 GMT+0000 (Coordinated Universal Time)

1 59588U 24077B 26263.23982635 .00003916 00000+0 27437-2 0 9995 2 59588 97.2218 161.3073 0065479 331.0458 28.7084 13.97699460121302
UTC large
Height (km)
Speed (km/s)
/
Latitude / Longitude
Inclination (degrees)
Orbital Period (minutes)
Azimuth
Elevation
Range (km)
Doppler Factor

Next 0 passes for location: London (51.5072 / 0.1276)

No passes found over London.
ACS3